Wind_Speed
17 17 17 17 18 18 19 19 19 19 19 19 18 17 16 16 16 16 16 15 14 13 13 13 14 14 14 13 12 12 12 13 14 11 10 12 15 19 22 24 24 25 26 27 29 30 30 29 26 25 22 20 17 15 15 15 13 12 10 10 11 12 12 11 9 7 3 1 1 1 2 5 7 11 13 12 10 8 6 8 8 8 8 10 11 16 21 26
17 18 18 18 19 19 19 20 20 20 20 20 19 19 18 17 17 16 17 16 16 15 14 13 13 14 14 14 13 12 12 13 13 8 9 13 13 16 21 25 26 25 26 27 28 28 29 29 28 26 24 21 18 18 18 16 15 13 10 10 13 14 13 10 8 7 4 2 2 1 4 4 7 9 10 11 10 7 6 7 8 8 9 13 16 20 24 26
18 19 19 19 19 20 20 20 21 21 21 21 20 20 20 19 18 18 17 17 17 16 16 15 14 14 14 14 13 13 12 12 11 7 11 14 11 14 20 25 26 24 23 24 24 25 25 26 27 27 25 23 21 21 19 17 16 14 12 12 14 14 12 10 8 6 3 2 1 3 5 5 8 8 5 7 8 6 4 5 3 5 11 15 18 22 25 26
18 19 19 19 20 20 20 21 21 21 22 22 21 21 21 21 20 19 19 18 17 17 17 16 15 15 14 13 13 13 12 11 11 10 12 12 11 14 17 22 24 22 22 22 22 23 24 26 28 27 27 24 23 23 21 18 16 14 12 13 15 13 12 12 10 6 2 3 3 4 6 7 9 8 4 4 6 2 1 3 0 2 7 12 15 22 26 26
17 17 18 18 18 19 20 20 21 21 22 22 22 22 22 22 21 21 20 19 18 18 18 17 16 15 15 14 13 12 11 10 10 9 9 8 11 15 16 18 20 21 23 24 25 26 28 30 30 29 28 26 26 25 21 17 15 14 12 14 14 13 14 13 12 8 4 5 7 8 7 8 12 12 9 7 2 4 5 4 2 3 2 4 9 18 26 27
15 15 16 16 17 17 18 19 19 20 21 22 22 22 23 22 22 22 21 21 20 19 19 19 18 16 16 15 13 12 10 8 7 6 8 7 8 13 15 17 19 22 25 25 26 28 30 32 33 33 30 27 27 23 19 17 16 15 13 16 15 14 14 13 13 9 4 7 9 8 6 7 13 14 12 8 3 5 5 4 2 1 1 1 5 14 23 25
14 15 15 16 16 17 17 18 18 19 20 21 22 22 23 23 23 23 22 22 21 20 20 20 19 18 17 16 15 13 10 10 11 10 10 9 9 11 13 16 20 23 25 26 27 29 31 34 35 34 31 30 28 22 19 19 18 16 14 16 14 13 15 14 12 8 5 9 9 7 8 9 10 12 12 9 5 7 7 3 2 3 3 3 6 12 19 21
15 15 16 16 17 17 17 18 18 19 20 20 21 22 23 23 23 23 23 23 22 21 21 21 21 19 18 17 16 13 12 12 14 12 10 12 12 12 12 16 20 23 24 25 26 28 29 34 35 33 33 32 29 23 20 21 21 19 14 13 13 14 14 12 10 7 6 11 12 11 12 12 10 9 11 10 8 9 9 9 7 6 5 5 7 12 18 20
16 16 17 18 18 18 18 18 18 19 19 20 21 21 22 23 23 23 23 23 23 23 22 22 22 21 20 18 17 14 14 13 11 11 10 12 14 13 12 15 19 22 24 24 24 26 29 32 33 33 33 30 28 24 22 24 23 19 13 11 14 14 12 9 9 8 8 13 16 17 15 13 12 10 12 13 11 10 12 13 11 8 7 6 7 12 17 19
17 17 18 19 19 18 18 17 17 17 18 18 19 20 21 23 23 23 23 23 23 23 23 23 23 22 21 20 18 15 14 14 11 11 12 13 15 14 13 15 18 20 21 23 24 25 26 27 28 30 30 28 27 25 25 27 22 17 14 13 16 15 12 10 10 9 8 13 18 19 17 14 14 14 17 17 16 14 15 16 13 10 9 7 8 11 16 18
19 19 19 20 19 17 17 16 16 17 17 17 18 20 20 21 22 22 23 23 23 23 23 24 24 23 22 22 19 14 15 16 13 13 14 14 15 15 14 15 18 19 20 21 22 21 20 21 23 28 30 29 29 28 28 27 21 18 17 17 20 17 16 15 14 13 11 14 17 17 17 16 17 20 21 20 19 18 16 16 14 12 10 10 10 11 15 18
20 20 20 20 18 16 16 16 16 17 17 17 18 20 21 22 21 21 21 22 22 23 23 23 24 24 24 22 17 15 16 17 16 16 16 15 15 15 15 15 17 19 21 20 18 18 17 19 23 29 30 29 30 28 27 27 22 20 19 20 22 19 20 21 18 16 15 18 18 17 19 20 22 23 23 21 19 19 18 16 15 14 12 12 12 13 15 18
21 21 21 21 18 16 16 16 16 17 18 18 19 20 21 22 22 22 21 21 21 22 23 23 23 24 26 21 13 15 17 17 19 19 18 16 15 15 13 15 18 19 20 19 17 16 15 18 22 28 30 28 29 26 23 27 25 22 20 21 22 22 23 24 20 17 17 20 20 20 23 24 25 24 23 21 21 21 21 18 17 17 15 14 15 15 16 18
21 22 22 21 19 17 17 17 17 19 20 20 21 22 23 23 24 23 22 22 21 21 21 22 22 23 26 19 13 16 17 16 16 16 18 16 15 16 14 15 19 22 22 20 19 18 17 17 20 27 31 29 29 25 20 24 25 22 19 21 23 25 24 24 19 18 18 21 21 23 27 27 23 24 24 22 21 23 23 21 19 19 17 16 16 17 17 18
21 22 22 22 21 19 19 20 20 21 22 22 22 23 24 24 25 24 23 23 22 22 22 21 21 23 24 20 18 20 18 17 15 16 20 19 17 17 15 16 19 23 24 23 21 21 19 18 21 28 32 30 28 27 22 21 24 22 17 21 24 26 23 24 19 19 19 19 20 24 30 29 23 24 26 23 22 22 23 23 21 21 19 16 16 18 18 18
22 22 23 23 23 22 22 23 23 23 24 23 23 24 25 25 26 25 23 24 22 22 24 22 20 21 21 19 19 21 21 22 21 23 23 21 19 17 15 17 21 25 26 25 23 23 23 22 23 26 30 31 29 28 26 22 24 24 22 23 23 24 25 24 21 20 19 19 21 26 30 31 26 24 27 26 25 23 23 25 24 23 21 17 16 17 19 20
22 23 23 24 24 24 24 25 25 25 25 24 24 25 26 26 27 25 24 24 22 21 22 21 20 20 19 19 18 18 23 26 26 28 27 24 22 19 19 21 24 27 26 25 25 25 26 27 27 28 31 33 30 28 25 26 28 29 27 26 24 24 27 27 23 20 19 20 23 26 30 33 29 26 27 26 26 26 25 26 28 25 22 18 16 17 19 21
23 24 24 25 26 26 25 26 26 26 26 26 26 26 26 27 27 25 24 23 20 18 18 16 17 16 11 15 18 18 22 27 29 30 29 27 24 23 22 21 23 28 28 27 28 29 31 32 31 32 34 36 35 33 32 34 35 33 29 27 26 27 30 31 27 20 18 19 21 25 30 33 33 28 26 24 23 26 25 26 29 28 22 18 17 17 18 20
24 24 25 25 27 27 26 27 27 27 27 27 27 27 27 26 25 23 21 20 17 14 14 12 14 13 8 10 16 22 25 27 29 30 30 28 27 27 24 22 25 29 30 30 31 33 35 35 35 37 41 44 43 42 42 39 34 30 28 26 27 28 32 34 31 22 15 17 20 24 30 33 35 33 29 25 23 23 24 26 30 30 25 21 19 17 16 17
24 24 24 25 26 28 27 27 28 28 28 28 27 28 27 25 22 19 14 16 15 11 11 12 12 12 14 14 16 24 27 27 29 30 31 30 30 31 29 27 27 28 31 32 33 35 36 39 44 46 47 49 47 43 41 37 31 27 24 24 26 29 33 34 31 24 17 19 22 22 28 33 35 36 34 30 26 25 26 29 33 33 29 25 21 18 15 13
24 25 25 24 25 27 27 26 27 28 28 27 28 28 28 26 24 21 15 14 12 9 9 12 13 10 12 17 21 25 26 27 27 28 30 32 33 35 35 32 30 32 33 31 31 34 37 43 48 47 46 46 45 42 38 36 33 29 24 22 24 29 35 35 30 26 20 22 24 22 26 31 33 35 36 34 31 29 28 29 33 36 34 28 23 19 14 12
25 26 26 25 24 25 26 25 25 26 26 26 26 26 26 25 24 24 21 17 10 6 9 11 12 12 9 12 19 25 27 27 25 26 29 32 36 37 36 35 34 34 32 30 31 34 39 46 48 44 44 44 43 41 38 36 34 33 30 26 27 30 33 34 32 28 23 23 24 22 23 26 29 32 36 37 37 34 31 28 29 33 35 33 28 21 16 16
26 26 27 26 24 24 25 24 24 24 24 24 24 24 24 23 23 22 22 22 12 5 9 10 11 13 10 9 12 17 25 27 25 27 30 33 38 38 37 37 36 34 32 33 36 39 42 46 47 44 43 44 42 40 38 36 35 36 34 31 32 32 29 32 33 28 25 25 23 18 17 21 25 28 33 37 37 36 34 30 29 32 34 34 31 22 16 17
28 28 28 27 25 23 24 23 23 23 23 23 23 23 23 22 22 20 20 23 13 5 8 9 10 15 14 13 13 10 16 25 26 29 29 34 38 37 37 37 35 35 35 35 36 40 44 42 41 44 44 42 42 42 39 36 36 37 37 36 37 35 31 34 33 27 25 26 22 16 13 16 23 27 32 35 36 37 36 33 33 37 38 35 31 25 19 18
29 29 29 29 26 23 23 22 21 21 20 21 20 20 21 21 21 19 19 20 9 4 9 9 9 14 14 15 14 9 8 17 24 29 30 33 38 38 38 36 35 37 36 35 35 38 42 38 32 38 45 43 40 42 42 39 37 38 40 41 40 37 34 34 32 26 23 25 24 17 11 11 19 27 31 34 38 40 39 38 38 39 41 40 35 29 24 22
30 30 29 29 27 23 23 23 22 20 19 18 17 17 18 19 19 17 18 18 9 6 9 9 9 11 11 13 12 7 0 10 20 27 29 31 36 38 38 37 37 38 37 35 35 36 40 39 28 26 37 44 41 41 43 41 36 39 45 45 42 38 35 34 32 24 19 22 24 17 9 9 15 25 30 33 38 41 41 42 41 41 43 42 39 32 26 23
30 30 29 28 27 24 23 24 23 22 20 17 17 16 16 17 17 16 15 11 8 7 8 9 10 10 9 12 12 10 7 3 15 22 26 30 35 39 40 40 38 36 36 34 35 38 39 40 34 24 25 37 44 44 43 40 37 43 48 45 41 39 36 36 33 26 23 27 28 22 16 13 16 23 27 33 40 42 45 45 43 45 45 42 40 35 28 24
29 29 28 26 25 24 23 24 24 23 21 19 18 16 15 15 14 13 8 3 5 9 10 10 11 11 6 7 9 12 13 6 6 15 26 32 34 36 39 41 38 35 35 35 39 42 39 40 42 34 26 29 41 46 44 40 39 44 44 40 42 39 36 38 33 29 30 28 30 34 27 15 14 21 25 36 47 48 49 47 43 44 44 42 41 39 32 26
29 28 27 25 24 23 23 24 25 24 21 19 18 16 15 14 12 11 4 2 5 9 12 12 11 12 6 1 3 5 8 8 7 6 19 28 31 33 33 35 34 30 32 37 39 39 37 37 38 37 36 33 31 34 41 42 40 39 35 32 37 37 36 38 32 30 31 23 27 42 34 13 13 22 26 39 54 54 50 47 43 41 41 40 40 40 36 29
30 28 27 26 24 22 21 22 23 23 22 19 16 15 14 12 10 7 2 3 8 11 14 13 10 11 10 6 7 6 5 9 11 8 10 21 27 31 29 28 29 27 28 34 36 35 33 29 29 34 39 38 31 25 31 38 38 36 30 24 25 28 32 35 32 29 24 16 27 45 39 19 13 21 28 36 48 52 51 49 46 43 42 41 41 41 39 33
30 28 28 26 24 21 20 20 20 20 20 18 16 14 12 11 8 2 3 6 11 13 16 14 10 10 14 12 5 7 9 11 10 7 2 11 19 28 26 19 24 28 27 30 33 35 32 24 24 29 29 31 33 30 27 30 34 35 31 24 21 20 22 26 27 24 15 10 26 43 41 28 19 24 31 30 32 41 48 50 47 44 44 42 40 41 40 37
30 28 27 26 23 22 22 22 21 18 17 16 15 13 9 8 6 4 6 10 8 12 17 19 18 17 17 13 9 10 12 12 9 10 11 7 6 13 12 6 12 20 25 31 30 30 34 32 29 25 23 24 31 35 32 28 33 37 34 29 21 12 12 15 13 12 9 9 25 39 35 27 27 35 40 33 29 33 41 47 46 42 41 39 36 37 39 39
30 28 27 26 25 24 25 25 23 19 17 15 13 10 6 4 3 3 10 11 8 13 21 22 22 22 15 9 13 14 12 11 6 7 14 12 10 11 7 8 9 7 13 24 26 24 28 32 34 32 28 27 30 36 37 33 34 39 39 35 24 9 5 9 6 5 6 9 25 39 31 20 25 37 43 40 36 33 34 40 46 46 40 34 31 32 34 38
30 28 28 27 26 25 23 22 21 17 14 12 8 4 1 2 1 5 11 13 13 17 21 22 23 21 11 6 14 16 13 12 8 7 15 13 8 12 8 5 5 2 6 12 16 21 23 26 36 41 36 33 33 35 36 35 35 38 41 39 33 24 14 8 4 3 3 5 18 32 22 10 17 30 38 40 36 32 30 31 38 48 47 39 35 33 32 36
30 29 29 28 26 22 20 20 18 14 11 7 2 2 2 2 4 8 12 14 16 19 21 22 21 17 10 6 10 14 13 13 12 11 13 15 12 14 14 12 9 2 3 3 5 13 20 28 36 38 38 37 36 34 33 34 34 34 39 40 39 41 31 12 6 8 6 4 13 25 16 7 13 23 31 36 34 30 29 28 29 39 48 49 48 45 40 37
29 29 30 28 23 18 18 18 15 12 9 3 3 5 5 4 6 9 12 13 15 18 20 19 16 13 15 14 13 15 15 13 14 12 11 13 12 11 15 17 14 12 13 10 6 4 8 24 31 29 34 40 39 35 32 34 34 31 36 44 44 44 37 20 11 13 10 5 14 25 19 11 14 17 21 29 32 28 26 27 27 29 37 46 53 53 47 42
29 30 29 25 20 16 16 15 11 10 7 2 3 6 7 6 6 7 10 12 13 16 17 16 13 12 16 18 17 17 17 15 14 13 11 10 9 9 12 13 9 13 21 17 6 6 14 20 26 27 31 36 35 36 34 34 34 31 34 42 42 36 34 29 14 7 7 5 10 22 22 16 16 16 20 26 30 30 26 25 25 24 28 37 45 49 47 43
31 31 27 23 19 16 15 13 10 9 6 3 2 2 4 6 6 7 10 13 14 14 14 12 11 12 14 16 15 15 17 16 15 14 10 7 6 8 12 12 9 8 14 16 11 9 15 18 19 27 29 31 32 33 35 35 35 35 34 36 33 28 27 30 19 7 6 4 4 12 17 21 24 22 21 25 31 34 30 26 25 23 25 31 36 40 40 40
30 28 24 21 18 14 11 10 9 8 7 6 2 1 2 2 3 7 9 11 12 11 10 9 10 11 12 13 13 13 14 14 14 12 8 7 7 8 13 14 11 9 10 15 18 13 9 9 12 22 25 28 33 32 34 39 38 37 37 33 33 33 31 31 27 16 7 3 4 6 7 19 32 30 25 26 29 33 32 29 28 26 26 27 28 30 33 36
28 25 21 20 19 13 9 9 8 7 7 6 3 2 2 3 1 5 7 7 8 8 8 9 10 11 11 11 11 12 12 12 14 12 8 7 9 10 13 15 15 14 14 14 17 15 9 10 12 20 23 22 30 32 34 38 38 39 40 36 34 36 34 30 29 27 17 5 3 3 5 18 31 29 26 26 26 30 32 32 32 30 29 27 25 26 29 33
28 27 23 22 21 13 7 7 7 9 10 7 5 4 2 4 6 5 5 5 6 7 8 9 9 10 10 8 10 12 10 9 12 12 11 9 9 10 12 16 21 21 20 18 17 18 15 15 17 20 21 20 29 36 33 31 33 36 38 39 38 34 30 21 15 25 31 17 7 4 6 21 29 25 26 27 27 31 35 35 35 34 34 33 30 29 28 30
27 29 28 26 23 12 4 6 8 12 12 9 7 5 2 5 8 8 7 6 4 4 7 7 8 9 9 8 9 10 8 8 10 10 12 10 8 11 14 18 22 22 22 22 19 17 16 15 17 22 25 25 32 37 30 24 26 29 28 34 41 38 33 25 13 19 29 25 21 13 9 24 32 26 27 30 29 32 36 40 42 40 40 39 36 35 32 30
25 26 29 28 24 14 2 7 9 11 11 8 6 5 4 7 9 9 9 7 6 7 6 5 6 8 8 8 8 7 7 9 8 8 12 13 10 9 12 16 19 20 21 20 17 15 13 12 16 20 25 31 36 36 30 23 20 21 21 24 34 40 40 36 28 24 23 23 25 15 10 28 34 24 23 26 23 22 25 29 34 38 41 40 38 39 39 36
26 25 28 30 26 17 5 6 11 13 11 8 6 5 6 8 11 11 10 6 6 7 6 5 6 7 8 9 9 8 9 8 7 9 13 15 13 10 12 17 18 19 18 13 13 16 12 11 17 15 12 19 27 27 25 23 19 18 18 17 25 38 43 40 34 28 23 27 30 16 13 35 40 28 25 24 19 18 17 17 21 28 34 36 37 39 40 40
28 25 26 29 26 19 12 6 9 13 13 11 8 7 7 7 10 12 10 6 5 6 5 4 5 7 9 11 10 10 10 8 7 10 13 15 16 15 17 20 19 19 16 10 9 13 13 12 14 10 4 7 12 10 9 12 13 16 19 18 23 31 38 41 36 26 22 28 34 28 28 42 45 36 32 29 24 23 20 17 20 24 29 33 36 37 36 36
31 27 26 27 22 16 15 11 8 9 11 11 10 9 9 9 10 10 9 7 7 7 6 6 8 10 11 12 12 11 10 10 9 9 10 13 16 17 19 21 20 18 18 15 14 15 16 17 16 14 12 14 16 16 12 14 17 18 18 19 23 24 28 37 38 34 30 28 32 39 40 42 44 42 39 35 30 27 23 21 22 24 29 31 34 35 34 33
31 29 29 28 19 13 15 11 9 8 7 8 8 8 10 12 11 9 8 8 8 7 7 8 10 11 10 10 11 11 11 12 12 11 11 12 15 16 19 21 19 18 19 18 18 17 18 21 20 18 18 19 22 23 17 16 20 21 18 16 19 19 20 27 36 43 40 27 26 37 38 37 43 42 36 34 32 30 28 26 21 23 28 29 33 35 35 34
29 28 28 28 21 16 17 10 8 9 7 6 6 6 7 9 9 9 8 6 5 7 9 9 10 10 8 9 11 11 12 13 13 13 12 12 14 15 17 20 19 18 18 17 18 16 17 23 23 19 22 22 19 17 14 15 18 18 17 15 15 16 18 23 32 43 44 34 30 35 34 35 40 37 32 31 28 28 29 27 18 22 25 26 29 31 35 37
27 26 25 25 22 17 18 14 7 9 8 6 4 3 4 6 7 8 9 7 7 8 11 11 11 11 9 9 11 11 11 12 14 16 14 13 15 15 16 18 17 16 16 15 15 14 16 23 22 19 25 23 13 9 12 14 16 16 14 14 17 19 21 25 30 36 43 44 41 37 33 35 37 32 28 24 21 21 25 24 15 23 24 22 23 25 32 36
26 25 24 23 20 15 16 14 7 6 7 6 4 3 4 5 6 7 8 9 8 6 8 10 11 12 11 11 13 12 11 12 16 18 16 15 17 16 16 18 18 17 15 13 11 11 15 21 20 19 26 19 6 7 11 13 15 15 10 11 12 17 22 26 29 33 39 43 41 36 35 37 36 30 24 21 18 18 20 19 14 23 22 20 22 24 29 33
26 25 24 22 19 16 14 12 7 4 8 7 6 5 5 5 7 8 6 7 7 6 8 11 11 12 12 13 14 14 13 15 18 19 17 18 19 18 17 20 20 18 15 11 9 11 16 21 21 19 24 16 4 4 11 15 15 10 8 11 3 9 17 24 27 31 38 41 40 37 36 36 34 29 25 23 19 16 17 18 16 24 22 19 20 23 26 29
25 25 24 22 19 16 13 11 8 3 8 8 6 5 6 6 7 9 7 4 4 5 8 9 10 11 11 11 12 13 14 16 19 19 18 19 21 21 20 21 20 20 17 11 8 11 15 19 20 15 17 14 7 12 13 12 9 4 7 15 14 14 16 25 28 30 37 41 40 40 39 37 34 31 28 24 19 17 18 18 19 25 22 16 15 19 23 27
Wind_Direction
317 316 315 315 313 313 312 311 311 310 310 309 308 307 306 304 303 302 300 298 295 292 288 286 284 283 283 282 280 274 272 270 270 276 274 255 238 226 218 219 217 214 211 205 206 205 202 199 200 203 204 203 198 193 189 190 200 202 196 178 160 148 139 133 137 136 108 10 337 0 137 169 177 162 169 181 171 165 147 138 157 157 175 186 189 204 189 171
316 315 314 313 311 310 308 308 307 306 305 304 304 303 301 300 299 298 297 297 294 292 289 287 284 282 281 280 279 275 273 271 272 274 262 254 243 230 221 221 221 217 213 208 206 207 207 203 202 204 205 205 198 194 193 197 207 207 205 188 163 148 138 138 140 133 103 31 328 172 152 173 186 178 172 175 177 180 170 163 174 172 177 180 181 194 191 177
319 317 316 314 313 311 309 307 305 304 303 301 301 299 297 296 294 294 293 293 292 291 289 287 285 282 280 278 277 275 272 272 274 258 248 258 256 237 224 222 224 221 217 213 208 207 208 208 206 205 204 202 199 198 197 202 212 215 214 186 156 148 145 150 152 134 88 59 232 175 161 185 194 195 179 163 182 199 188 171 181 183 186 186 180 189 193 183
323 321 320 317 316 313 311 309 306 305 303 301 300 297 295 293 291 290 289 288 288 288 287 286 284 283 281 278 276 273 273 274 272 257 251 257 253 244 230 225 227 222 216 213 208 203 203 206 206 206 205 200 198 200 202 205 211 215 205 168 147 152 153 152 152 151 145 145 175 194 180 189 201 211 227 201 192 204 154 164 19 117 183 199 185 187 194 186
331 329 327 325 323 319 316 313 311 308 305 303 301 298 295 292 290 287 286 285 284 284 284 283 282 281 280 279 277 274 273 276 274 258 248 244 238 241 234 225 224 220 216 212 207 202 200 203 203 204 204 200 199 202 206 207 211 212 186 155 152 153 149 150 149 154 186 185 195 222 213 190 195 210 238 244 233 19 39 88 98 78 111 221 196 189 192 190
344 342 339 337 333 329 326 322 318 315 311 308 304 301 297 294 291 288 286 283 282 281 280 280 279 279 279 278 277 274 269 268 265 230 215 222 227 235 232 220 214 215 215 212 210 206 202 202 203 202 201 199 204 205 205 207 211 211 181 162 162 152 152 154 152 156 194 222 217 217 219 200 199 211 237 257 310 345 353 47 79 103 107 233 201 193 192 192
352 349 346 342 339 336 332 329 325 322 318 314 311 307 303 298 294 290 287 284 282 279 277 277 276 275 275 275 275 273 266 252 246 234 222 231 237 235 229 214 207 211 214 211 211 210 207 205 204 203 200 199 205 202 197 205 211 216 197 176 170 158 159 152 151 164 202 230 223 208 223 231 227 224 237 262 279 272 278 273 202 199 217 202 186 193 195 196
349 346 343 341 338 334 332 330 327 324 322 319 316 313 309 305 300 296 291 286 283 279 276 274 273 272 271 270 271 271 267 253 250 253 245 238 235 233 227 212 207 208 211 213 213 215 213 212 208 204 202 200 203 196 191 204 211 218 208 186 184 171 163 155 156 170 205 222 222 223 230 242 252 242 249 272 267 249 253 246 223 204 206 196 180 187 197 200
341 340 338 337 334 331 330 329 327 325 324 321 318 315 313 309 306 303 298 292 286 281 276 272 270 269 267 267 267 269 267 259 252 249 239 230 226 226 222 214 213 209 207 210 213 217 217 218 214 208 206 202 201 193 190 204 212 217 210 197 200 186 173 178 178 173 198 211 215 222 223 234 243 240 251 264 260 245 239 239 229 206 196 192 183 185 196 201
333 333 332 332 332 330 331 332 332 331 330 328 325 323 319 314 312 308 303 298 292 285 278 273 269 267 266 264 263 267 265 258 247 235 227 221 219 219 211 209 215 212 210 209 211 217 219 222 220 215 210 203 201 194 194 207 213 216 219 217 210 203 200 207 207 191 204 209 205 215 219 225 233 235 244 248 245 237 231 235 227 209 200 195 191 186 193 199
329 329 328 329 330 329 332 337 338 336 336 336 332 331 327 323 321 316 309 303 298 291 283 276 270 267 264 262 262 263 259 254 244 232 227 220 215 213 201 204 211 210 212 214 216 220 222 223 219 217 212 205 202 196 200 210 213 213 223 225 212 215 221 220 219 206 225 228 206 215 224 224 232 241 250 249 241 232 230 236 225 207 202 199 195 189 190 196
329 328 328 327 327 328 331 336 340 338 338 338 336 335 331 329 328 324 318 310 302 296 289 281 273 267 263 261 262 258 251 248 240 227 223 219 215 212 200 199 206 209 213 215 218 217 220 221 216 215 211 208 204 197 205 210 214 215 222 228 217 226 230 216 217 217 235 236 217 224 227 224 231 240 250 249 241 233 233 238 225 208 203 202 196 190 192 194
329 329 328 326 323 324 327 333 339 338 337 337 337 334 332 331 330 328 326 320 311 300 293 285 277 270 263 260 257 252 243 239 239 229 223 218 214 220 218 205 198 203 209 212 217 216 220 221 217 214 209 210 205 199 205 207 216 220 222 230 226 239 232 206 213 231 238 232 222 230 230 228 230 234 243 242 235 231 232 235 224 212 208 208 199 191 193 196
329 330 330 327 320 318 321 326 332 333 332 332 332 331 330 330 329 331 330 326 319 307 296 287 281 273 264 256 241 242 239 236 241 232 225 221 216 221 229 223 204 198 201 202 211 215 219 222 220 215 209 210 206 202 202 200 211 219 225 233 235 249 233 198 212 239 238 233 231 234 235 235 228 229 236 237 236 233 232 232 222 216 214 213 205 194 195 200
328 330 330 328 321 314 315 317 322 325 325 327 328 326 326 328 328 330 332 331 324 310 300 291 283 275 266 257 239 237 235 235 233 220 219 218 218 222 227 234 221 204 196 194 202 206 209 216 218 213 207 209 208 204 201 196 202 210 224 233 236 248 228 198 214 235 235 240 241 234 234 237 229 228 234 236 241 238 235 233 225 220 218 216 209 198 197 199
327 329 329 328 323 316 312 312 315 317 319 322 324 322 323 326 327 329 334 332 320 307 301 296 287 275 268 260 243 235 229 228 226 219 218 214 215 224 227 230 224 209 197 191 195 199 203 210 216 215 207 207 208 204 205 211 209 206 217 228 231 239 232 219 218 224 232 240 242 234 232 236 232 231 235 236 240 240 238 234 228 223 217 216 214 203 199 199
327 328 328 327 324 320 316 313 313 314 314 317 319 318 320 322 324 331 334 326 313 306 303 300 292 281 270 259 243 231 224 222 222 219 218 214 209 213 219 222 219 207 195 190 194 197 201 204 209 213 207 204 205 203 214 227 218 207 213 225 226 227 234 236 226 221 230 234 242 241 235 236 235 234 235 235 238 240 241 236 228 223 216 216 217 207 204 205
328 328 328 328 325 322 319 316 315 314 314 315 316 316 318 320 324 328 329 322 315 314 311 303 295 290 272 249 235 225 220 218 219 217 217 216 206 205 213 215 209 200 192 191 195 196 198 202 205 209 207 205 203 205 215 219 211 206 211 222 226 226 230 235 233 227 232 239 244 240 234 233 234 237 237 235 237 240 244 239 228 222 218 218 217 213 211 213
329 329 328 328 324 321 320 318 317 315 315 315 316 316 316 316 316 319 328 331 330 337 334 318 297 284 259 240 230 222 219 215 215 214 213 211 203 201 202 198 193 193 194 195 195 196 196 199 201 205 207 205 202 204 211 213 209 210 217 223 225 228 229 230 234 230 232 252 247 235 231 228 229 234 239 241 240 242 246 238 227 221 221 221 219 217 218 221
330 329 328 328 325 321 320 320 318 317 316 316 316 314 312 312 308 310 340 360 353 356 359 344 323 287 253 241 227 222 221 213 211 211 208 202 197 198 196 189 186 191 199 200 198 197 196 198 201 206 207 204 202 204 211 215 212 214 224 230 228 233 232 227 229 227 230 254 252 239 231 227 230 236 241 244 240 237 239 234 226 221 222 224 223 220 222 225
329 329 328 328 327 323 322 322 320 319 319 319 319 319 320 323 324 323 344 13 4 353 2 5 360 331 269 243 229 222 219 214 209 208 207 198 192 195 196 190 188 194 199 201 201 198 198 203 207 212 211 205 203 206 213 219 217 218 225 230 233 235 233 226 226 226 232 251 254 244 231 227 232 236 240 242 238 238 240 235 227 223 224 226 227 223 220 217
329 330 329 329 330 327 325 324 323 322 322 322 323 325 326 329 333 333 335 347 355 354 357 2 0 346 304 257 241 228 220 216 208 203 205 199 193 196 196 195 195 197 197 196 200 199 201 209 213 215 212 206 206 209 214 219 221 223 225 232 235 231 233 231 224 224 233 247 251 247 239 235 236 238 240 241 243 246 248 243 234 227 224 225 226 222 214 209
330 332 332 331 332 329 326 326 325 325 324 324 325 324 325 326 330 334 331 329 330 343 349 353 357 347 328 300 277 243 223 216 204 197 201 200 197 198 197 200 201 200 197 196 200 200 203 213 216 213 211 208 208 209 215 221 224 224 225 232 233 226 231 233 224 223 234 243 248 255 257 250 245 243 242 246 250 253 252 248 240 232 228 229 229 224 218 215
330 332 334 332 333 331 326 326 326 326 325 324 323 322 323 324 326 330 324 320 316 293 315 331 351 351 344 335 322 286 233 218 199 188 197 201 199 200 201 202 203 204 203 202 205 206 207 214 215 211 210 211 211 210 214 220 225 226 225 228 229 223 222 226 227 230 237 239 239 255 273 255 243 237 239 244 245 246 247 243 235 230 229 231 230 226 224 222
330 332 334 332 334 332 326 326 324 322 323 322 320 320 321 319 323 327 318 317 318 284 300 312 338 347 350 352 346 331 255 222 199 185 195 202 200 201 204 205 207 210 210 207 211 216 215 215 216 213 212 213 214 215 215 217 224 228 225 222 223 222 219 223 234 245 255 249 235 243 269 255 238 237 242 242 235 234 236 234 232 228 226 226 226 225 223 219
330 330 332 331 331 332 327 324 319 317 318 319 318 317 318 318 321 323 314 309 300 289 305 310 329 339 349 6 11 13 179 203 199 197 199 201 201 203 205 207 210 213 215 213 216 221 219 216 217 217 215 215 216 218 218 217 224 229 225 219 219 225 223 223 237 252 265 256 241 239 261 266 237 234 246 244 236 237 233 230 232 227 224 224 224 224 224 218
329 329 331 330 329 330 328 321 317 316 315 315 318 320 321 321 320 316 313 307 289 289 302 304 323 338 356 11 19 32 32 188 199 206 205 199 201 203 205 208 210 214 215 214 218 223 220 216 218 214 214 218 218 220 220 216 221 228 226 220 221 228 224 223 240 252 253 256 256 251 255 270 243 232 246 242 234 237 231 227 230 226 225 226 225 223 222 219
330 328 330 331 329 329 326 319 315 314 314 314 318 323 323 321 317 309 308 318 297 298 301 301 309 314 332 7 11 21 11 339 212 210 206 200 201 203 208 211 211 215 216 213 218 223 221 218 219 214 212 221 221 222 221 214 218 228 229 224 225 229 226 228 244 255 254 263 268 258 254 266 258 248 249 233 226 229 228 225 227 227 227 227 226 224 220 216
331 330 331 333 331 329 324 317 313 312 313 314 318 320 320 318 308 297 286 233 282 300 308 306 304 302 289 224 303 343 356 353 348 268 211 203 205 205 210 213 212 216 220 220 222 225 226 226 225 220 219 223 225 226 225 219 218 225 229 229 229 232 233 236 249 259 258 260 262 259 255 252 259 257 241 221 219 223 225 226 226 228 229 227 226 226 222 215
333 334 333 334 333 329 322 314 312 311 310 312 316 316 316 311 296 286 239 246 290 304 305 306 307 310 311 285 248 254 312 346 348 326 218 207 209 207 210 216 215 216 220 224 226 227 231 236 234 230 228 227 227 229 227 224 223 224 226 229 232 235 235 241 252 256 255 250 248 254 254 247 254 255 237 223 223 224 224 224 225 226 228 229 229 228 224 218
334 336 335 335 334 329 318 309 306 306 306 309 314 313 306 295 279 232 187 265 295 302 302 312 315 322 342 343 290 260 301 328 347 8 174 202 208 207 209 215 222 225 223 223 226 226 228 231 230 231 234 232 230 231 230 230 227 223 222 223 227 232 232 240 248 241 235 242 244 251 254 247 239 246 243 239 239 233 228 226 224 225 227 229 231 231 227 224
334 336 334 332 333 329 320 314 310 305 304 306 308 304 289 275 255 217 267 281 299 317 323 329 324 332 359 7 335 302 306 321 351 33 40 52 128 183 191 183 214 228 228 224 224 225 225 227 225 226 232 230 228 228 226 229 228 221 219 218 217 219 221 230 236 225 221 239 243 248 254 247 241 247 247 246 247 239 234 232 229 229 229 229 234 235 231 228
333 334 331 329 332 333 328 323 321 316 310 305 302 298 272 236 219 268 300 305 315 326 327 325 324 336 357 3 345 333 318 319 331 21 16 24 74 99 125 166 184 206 228 224 223 224 224 228 226 224 228 226 225 224 219 219 222 218 214 212 208 195 200 222 221 239 241 232 241 247 252 248 246 250 246 243 248 246 240 238 234 234 234 232 238 239 235 232
335 333 328 327 332 335 331 326 325 324 317 305 298 299 242 177 259 317 329 331 324 320 323 324 325 335 346 358 2 352 331 329 318 328 354 0 43 61 75 158 177 219 225 211 215 219 218 224 222 219 220 221 223 225 222 218 218 219 216 212 213 211 207 211 199 215 214 200 237 243 242 230 236 245 243 240 246 249 247 244 239 238 237 237 241 241 237 235
338 332 325 328 334 332 328 326 325 327 323 308 301 75 86 71 341 339 343 338 332 328 329 329 326 334 346 351 3 355 339 338 322 312 350 6 11 24 31 38 44 17 232 205 231 230 224 226 224 220 219 221 222 225 226 221 218 221 219 213 216 218 215 216 231 233 217 187 233 234 227 219 241 250 245 240 244 244 243 246 243 240 237 235 238 239 238 239
338 331 327 333 340 334 329 329 325 326 325 318 76 65 58 37 353 347 346 339 340 338 333 333 334 350 0 348 349 354 348 345 331 323 356 9 358 2 13 23 42 49 31 5 325 322 268 235 221 216 220 221 222 224 223 220 217 217 215 214 218 220 218 221 242 242 225 209 233 234 234 237 243 249 239 236 243 240 235 238 240 242 238 233 236 237 238 240
341 337 338 343 349 342 333 333 324 318 321 339 63 49 47 32 352 341 347 341 338 335 334 342 350 360 1 352 352 0 358 355 346 347 6 9 351 341 348 1 27 43 34 19 360 9 331 271 220 204 215 218 221 228 228 226 223 217 216 219 218 219 223 224 230 240 214 211 240 237 239 233 224 228 224 226 237 237 231 232 233 236 234 230 234 237 238 241
345 346 349 353 353 344 333 332 323 307 302 307 356 37 34 23 351 332 339 339 333 329 334 350 355 351 355 355 353 356 3 3 357 1 19 25 6 334 325 331 335 358 24 21 8 359 335 297 228 201 211 214 212 224 229 229 230 225 225 227 216 208 216 218 218 230 221 224 261 240 238 234 226 221 215 217 232 237 232 226 224 225 225 225 230 235 237 239
347 349 356 356 350 340 324 313 307 301 285 281 295 11 343 357 4 350 348 346 340 336 343 353 349 345 355 359 349 348 3 4 355 4 25 19 353 318 310 311 301 306 344 3 358 354 0 329 246 208 208 214 211 217 224 223 226 227 228 231 224 216 214 212 213 219 218 220 249 246 243 238 235 232 222 217 226 235 233 227 223 222 223 224 226 231 234 235
346 349 356 355 348 336 310 284 281 281 262 250 244 248 258 228 271 357 1 358 354 352 351 347 343 346 355 1 355 351 359 355 346 355 3 342 320 298 297 300 291 292 308 333 350 348 355 347 289 226 207 211 211 212 219 220 219 219 220 221 220 219 216 215 219 220 221 224 201 211 255 245 239 237 233 226 225 231 233 231 229 227 228 230 228 229 231 231
345 345 350 354 349 335 294 267 259 247 237 221 213 229 239 242 257 291 330 351 6 1 350 338 335 344 349 352 354 351 353 345 336 340 340 332 321 303 296 302 303 300 301 313 337 346 341 338 313 264 237 224 208 206 215 221 218 217 219 219 217 215 208 207 217 218 221 230 228 206 260 255 247 241 242 238 232 234 235 235 236 234 233 233 230 229 229 227
348 346 345 348 350 343 273 242 241 234 233 222 216 233 259 269 268 269 288 314 324 322 336 337 333 344 349 345 346 346 348 337 324 329 330 326 323 308 296 301 304 302 306 309 315 329 333 331 317 288 262 232 205 200 205 212 214 214 219 223 223 219 210 207 210 210 212 223 238 246 269 262 254 246 246 246 241 241 241 240 242 242 242 240 236 232 230 226
352 349 343 344 351 356 298 224 228 228 232 228 229 247 257 266 273 267 274 298 299 294 321 338 334 345 345 336 337 335 334 328 320 326 325 321 323 315 301 303 303 301 307 307 304 314 330 341 330 300 265 233 212 208 211 214 220 226 230 228 224 223 219 218 222 219 210 211 224 235 264 258 253 245 241 242 238 239 241 240 241 241 243 242 238 234 231 228
353 352 348 347 351 356 349 236 230 229 230 227 231 251 257 262 268 263 265 290 307 303 313 319 322 331 323 317 320 319 318 317 317 325 325 323 323 315 304 306 306 307 311 316 323 322 318 335 341 328 286 241 225 224 229 231 233 235 237 231 223 223 224 225 225 222 218 217 216 214 243 249 247 242 237 236 234 235 237 244 249 246 242 238 235 234 231 228
350 355 355 352 349 350 351 310 248 235 234 236 242 252 260 263 263 259 256 263 288 294 294 296 299 300 298 299 301 301 297 296 313 328 331 329 322 311 302 302 305 310 310 303 304 303 291 302 322 325 300 252 244 247 261 268 257 237 231 224 217 219 223 225 222 215 216 220 215 215 234 245 246 245 243 240 240 240 241 261 270 254 240 235 233 233 230 227
347 352 356 356 351 347 344 325 273 249 243 243 251 262 271 279 276 267 256 255 263 260 261 280 282 277 283 291 297 297 289 291 304 315 323 321 315 310 302 300 306 309 302 289 276 275 278 282 289 290 278 274 286 293 294 300 289 257 237 223 214 216 222 223 220 216 218 219 217 223 233 244 250 252 250 248 246 242 248 277 278 244 230 230 230 230 229 227
346 349 353 356 355 348 342 321 268 266 268 253 260 270 278 288 288 280 269 267 272 268 261 272 280 283 292 301 304 303 294 295 297 295 295 294 298 306 302 298 305 307 298 289 278 272 275 271 271 288 292 285 293 294 280 278 282 272 264 247 223 214 218 223 221 220 220 217 221 229 232 240 250 254 253 251 251 246 253 279 275 229 220 226 226 225 225 225
346 348 350 353 352 346 345 331 261 261 278 270 271 278 288 294 294 297 293 270 266 285 281 272 276 283 293 303 307 304 298 299 299 291 287 290 295 302 301 299 303 304 299 289 277 269 269 268 266 283 295 289 291 288 265 263 276 275 275 272 251 232 223 223 225 224 221 220 229 234 233 239 249 254 254 256 260 255 259 278 263 208 206 219 222 223 221 220
345 347 349 351 350 345 343 339 287 252 263 267 258 267 292 296 299 313 313 291 271 281 287 286 284 283 285 295 298 298 301 302 299 294 294 299 297 295 302 305 302 303 304 292 278 263 257 263 265 278 293 293 281 248 239 260 274 265 267 291 289 265 236 221 222 225 224 226 233 237 238 243 249 256 259 263 268 260 262 275 242 192 195 212 216 218 218 218
344 347 350 350 349 345 342 343 323 246 248 257 248 253 281 289 300 317 321 314 306 293 292 295 291 286 285 289 288 287 290 289 288 293 296 294 292 292 298 299 296 301 304 295 279 250 242 254 257 275 295 295 248 215 234 252 268 267 286 317 288 253 233 218 216 221 222 224 230 235 240 244 249 257 262 265 265 253 256 268 228 186 189 204 206 210 212 212
343 346 349 349 349 350 348 348 341 256 236 247 250 260 280 291 309 322 327 326 327 319 305 302 299 293 286 287 288 284 281 278 277 283 285 283 285 287 286 285 287 294 295 294 281 240 236 250 251 274 301 291 227 270 260 241 246 264 348 17 60 197 213 213 211 214 216 220 225 230 237 242 246 252 257 262 262 245 247 259 224 190 191 201 205 210 210 206
341 344 346 346 350 354 352 352 351 279 235 248 252 261 289 304 320 326 326 333 344 329 309 299 296 293 287 287 292 288 284 279 275 278 278 276 279 281 280 276 275 278 279 281 276 240 232 247 251 275 300 276 272 325 298 253 242 248 25 33 66 111 164 193 200 205 210 215 221 226 232 238 243 246 250 256 256 244 245 243 210 191 193 201 209 215 213 203
Height
3146 3145 3144 3143 3141 3140 3138 3137 3136 3135 3134 3134 3133 3133 3132 3132 3131 3130 3130 3129 3129 3129 3129 3129 3128 3128 3127 3127 3128 3128 3128 3127 3128 3128 3128 3128 3129 3130 3132 3133 3134 3135 3137 3138 3139 3141 3143 3145 3147 3149 3151 3152 3153 3154 3154 3155 3156 3156 3157 3157 3157 3157 3157 3157 3158 3158 3159 3159 3159 3159 3159 3159 3160 3160 3160 3161 3162 3162 3162 3162 3163 3164 3165 3166 3168 3170 3170 3169
3145 3144 3143 3141 3140 3139 3137 3136 3135 3134 3133 3132 3131 3131 3130 3130 3129 3129 3128 3128 3127 3127 3127 3127 3127 3126 3126 3126 3126 3126 3126 3126 3126 3128 3127 3126 3127 3128 3130 3131 3132 3133 3135 3137 3139 3141 3143 3145 3146 3148 3149 3151 3152 3153 3153 3154 3154 3155 3156 3156 3156 3157 3157 3157 3157 3158 3159 3159 3159 3159 3159 3160 3160 3161 3161 3161 3162 3162 3162 3162 3163 3164 3165 3166 3166 3168 3170 3170
3144 3143 3141 3140 3139 3137 3136 3135 3133 3132 3131 3130 3129 3128 3128 3127 3127 3126 3126 3126 3125 3125 3125 3125 3125 3124 3124 3124 3124 3124 3125 3124 3125 3126 3125 3124 3126 3127 3128 3128 3130 3133 3135 3137 3139 3141 3143 3144 3145 3146 3148 3149 3150 3151 3152 3153 3153 3154 3155 3156 3156 3157 3157 3157 3157 3158 3159 3159 3159 3159 3159 3160 3161 3161 3161 3162 3162 3162 3163 3162 3163 3164 3165 3165 3165 3167 3169 3170
3143 3142 3140 3139 3137 3136 3134 3133 3131 3130 3129 3128 3127 3126 3125 3124 3124 3124 3124 3124 3124 3123 3122 3123 3123 3123 3123 3123 3123 3123 3123 3123 3123 3123 3123 3123 3124 3125 3126 3127 3129 3132 3134 3136 3137 3139 3141 3142 3143 3145 3146 3148 3148 3149 3151 3152 3153 3154 3155 3155 3156 3156 3156 3157 3157 3157 3158 3159 3160 3161 3160 3160 3161 3160 3160 3161 3161 3162 3162 3162 3163 3164 3165 3165 3165 3166 3168 3170
3142 3141 3139 3138 3136 3135 3133 3131 3130 3128 3127 3126 3125 3124 3123 3122 3122 3121 3121 3121 3121 3121 3120 3120 3121 3121 3121 3121 3121 3121 3122 3122 3121 3122 3122 3122 3122 3122 3124 3126 3128 3131 3132 3133 3134 3135 3137 3138 3140 3142 3144 3146 3146 3148 3150 3152 3153 3153 3154 3154 3155 3155 3156 3157 3157 3158 3158 3159 3161 3161 3161 3161 3161 3160 3160 3160 3161 3161 3162 3162 3164 3165 3165 3166 3166 3166 3168 3170
3142 3140 3138 3137 3135 3134 3132 3130 3129 3127 3126 3124 3123 3122 3121 3120 3119 3119 3118 3118 3119 3119 3118 3118 3118 3118 3119 3118 3119 3119 3120 3120 3120 3120 3121 3121 3121 3121 3122 3124 3126 3128 3129 3131 3132 3133 3134 3135 3137 3138 3141 3144 3145 3147 3150 3151 3152 3152 3153 3153 3154 3155 3156 3156 3157 3157 3158 3159 3160 3161 3162 3162 3161 3160 3160 3160 3161 3161 3162 3163 3165 3165 3166 3166 3167 3167 3168 3170
3141 3140 3138 3136 3135 3133 3131 3129 3128 3126 3124 3123 3121 3120 3118 3118 3117 3116 3116 3115 3116 3116 3116 3116 3115 3116 3116 3116 3117 3117 3118 3118 3118 3118 3120 3120 3120 3120 3120 3122 3124 3125 3127 3129 3130 3131 3132 3132 3134 3137 3140 3141 3143 3147 3149 3149 3150 3151 3152 3153 3153 3154 3155 3156 3156 3157 3158 3158 3159 3161 3162 3161 3161 3161 3160 3159 3160 3161 3163 3165 3165 3165 3166 3166 3167 3168 3169 3171
3141 3139 3138 3136 3134 3132 3130 3129 3127 3125 3123 3122 3120 3118 3117 3115 3115 3114 3113 3113 3113 3113 3113 3113 3113 3113 3114 3114 3114 3115 3116 3116 3116 3117 3118 3119 3118 3119 3119 3120 3122 3123 3125 3127 3129 3130 3131 3131 3133 3136 3138 3139 3142 3146 3148 3148 3149 3149 3151 3152 3153 3153 3154 3155 3155 3156 3157 3158 3159 3161 3161 3161 3161 3161 3160 3159 3160 3161 3163 3165 3165 3165 3165 3166 3166 3168 3169 3171
3141 3139 3137 3135 3133 3131 3130 3128 3126 3124 3122 3121 3119 3117 3115 3114 3113 3112 3111 3111 3110 3110 3110 3110 3110 3110 3111 3112 3112 3113 3113 3113 3114 3115 3116 3117 3117 3117 3118 3119 3121 3122 3124 3127 3129 3129 3130 3131 3133 3135 3137 3140 3143 3145 3147 3146 3146 3148 3150 3152 3152 3152 3153 3153 3154 3154 3156 3158 3159 3160 3160 3160 3160 3161 3160 3160 3160 3161 3163 3164 3164 3164 3164 3165 3166 3167 3169 3171
3140 3138 3136 3134 3132 3130 3129 3127 3125 3123 3121 3119 3118 3116 3114 3112 3111 3110 3109 3108 3107 3107 3107 3107 3107 3108 3108 3109 3110 3111 3111 3111 3112 3113 3114 3114 3115 3116 3117 3118 3119 3121 3123 3125 3127 3127 3129 3131 3135 3137 3138 3141 3142 3144 3144 3143 3145 3148 3149 3150 3150 3151 3151 3151 3152 3153 3155 3157 3158 3158 3159 3160 3160 3160 3159 3159 3161 3161 3162 3163 3163 3164 3164 3164 3165 3167 3168 3170
3139 3137 3135 3133 3131 3129 3128 3126 3124 3122 3121 3119 3117 3115 3113 3111 3110 3109 3107 3106 3105 3104 3104 3104 3104 3105 3105 3106 3108 3109 3108 3108 3110 3111 3111 3112 3113 3114 3115 3117 3118 3120 3122 3124 3126 3128 3130 3132 3134 3136 3137 3139 3140 3142 3142 3142 3145 3147 3148 3148 3148 3149 3149 3149 3149 3151 3153 3155 3157 3158 3159 3160 3160 3158 3158 3159 3160 3161 3162 3162 3163 3163 3164 3164 3165 3166 3167 3169
3137 3136 3134 3132 3130 3128 3127 3125 3124 3122 3120 3118 3116 3114 3112 3110 3108 3107 3105 3104 3103 3102 3101 3101 3101 3102 3102 3104 3106 3106 3106 3106 3107 3108 3109 3110 3111 3112 3114 3115 3117 3119 3121 3123 3126 3128 3130 3131 3132 3133 3135 3137 3138 3140 3141 3142 3145 3145 3146 3146 3146 3147 3146 3146 3147 3149 3151 3153 3155 3159 3159 3159 3158 3156 3157 3158 3160 3161 3161 3162 3162 3163 3163 3164 3164 3165 3166 3167
3136 3134 3133 3131 3129 3127 3126 3124 3123 3121 3119 3117 3115 3113 3111 3109 3107 3105 3104 3102 3101 3099 3098 3098 3098 3099 3099 3101 3104 3103 3103 3104 3104 3106 3107 3109 3110 3111 3112 3114 3116 3118 3120 3123 3126 3128 3129 3129 3130 3131 3134 3135 3137 3139 3139 3140 3142 3143 3145 3144 3144 3145 3143 3143 3145 3147 3149 3150 3154 3158 3156 3155 3155 3155 3156 3157 3158 3160 3160 3161 3162 3162 3162 3162 3163 3164 3165 3166
3135 3133 3131 3129 3127 3126 3124 3123 3121 3120 3117 3116 3114 3112 3109 3107 3105 3104 3102 3100 3098 3097 3096 3095 3095 3095 3095 3099 3102 3099 3101 3102 3103 3105 3106 3108 3109 3110 3111 3112 3113 3115 3117 3121 3124 3126 3127 3128 3129 3130 3132 3134 3136 3138 3138 3139 3140 3141 3143 3142 3142 3142 3141 3141 3144 3146 3147 3148 3152 3155 3153 3152 3154 3154 3154 3156 3157 3158 3159 3160 3161 3161 3161 3161 3162 3163 3163 3165
3133 3131 3129 3127 3126 3124 3122 3121 3120 3118 3116 3114 3113 3110 3108 3106 3104 3102 3100 3098 3096 3093 3092 3092 3092 3091 3092 3096 3098 3097 3099 3100 3102 3103 3102 3105 3107 3108 3110 3111 3112 3113 3115 3118 3120 3123 3125 3125 3126 3126 3129 3132 3135 3135 3136 3137 3137 3138 3139 3139 3139 3140 3140 3140 3143 3144 3145 3147 3150 3152 3150 3149 3152 3152 3152 3154 3155 3156 3158 3159 3160 3160 3160 3160 3160 3162 3163 3164
3131 3130 3128 3126 3124 3122 3120 3119 3118 3116 3114 3113 3111 3108 3106 3104 3102 3101 3098 3096 3093 3090 3089 3089 3089 3088 3089 3091 3093 3094 3096 3097 3098 3098 3099 3102 3105 3107 3109 3109 3110 3111 3112 3115 3117 3119 3121 3122 3123 3125 3127 3130 3131 3132 3134 3134 3134 3135 3136 3136 3137 3139 3139 3139 3140 3141 3143 3146 3148 3149 3148 3147 3150 3150 3151 3153 3153 3154 3156 3157 3158 3158 3158 3159 3159 3160 3162 3163
3130 3128 3126 3124 3122 3120 3118 3116 3115 3113 3112 3111 3109 3107 3104 3102 3101 3099 3096 3094 3091 3088 3086 3086 3086 3086 3086 3087 3088 3089 3091 3092 3093 3094 3096 3099 3102 3104 3105 3106 3107 3108 3110 3112 3113 3115 3117 3118 3120 3122 3124 3126 3128 3130 3131 3129 3128 3131 3132 3133 3135 3137 3137 3137 3138 3140 3142 3144 3145 3146 3146 3146 3147 3148 3149 3150 3151 3152 3153 3154 3156 3157 3158 3158 3158 3159 3160 3161
3128 3127 3125 3123 3120 3118 3116 3114 3112 3110 3109 3108 3106 3104 3102 3100 3098 3097 3095 3092 3089 3086 3084 3083 3082 3083 3084 3084 3084 3085 3086 3087 3089 3090 3093 3097 3099 3101 3102 3104 3106 3106 3107 3108 3109 3111 3113 3115 3117 3119 3121 3122 3123 3124 3122 3121 3123 3127 3129 3131 3134 3135 3135 3135 3136 3139 3141 3142 3143 3144 3144 3145 3146 3147 3147 3148 3149 3150 3151 3152 3154 3156 3157 3157 3157 3158 3159 3159
3127 3125 3123 3121 3118 3116 3114 3112 3109 3107 3106 3105 3103 3101 3100 3099 3097 3097 3095 3090 3086 3084 3082 3080 3080 3081 3082 3081 3081 3081 3081 3083 3085 3087 3090 3094 3097 3098 3100 3102 3103 3103 3104 3104 3105 3107 3109 3111 3113 3113 3113 3113 3114 3115 3115 3118 3124 3127 3129 3131 3132 3133 3133 3133 3134 3137 3140 3141 3141 3141 3142 3144 3145 3145 3145 3146 3148 3148 3149 3151 3153 3155 3156 3156 3156 3156 3157 3158
3125 3123 3121 3119 3116 3113 3112 3110 3107 3105 3103 3102 3100 3098 3096 3096 3095 3095 3093 3088 3085 3083 3081 3079 3078 3078 3079 3079 3078 3076 3077 3079 3081 3083 3087 3090 3094 3096 3098 3099 3099 3100 3100 3101 3103 3105 3107 3106 3104 3102 3102 3104 3109 3114 3116 3121 3125 3127 3128 3130 3131 3132 3130 3131 3134 3136 3139 3139 3139 3140 3141 3142 3143 3143 3143 3145 3146 3147 3147 3149 3150 3152 3153 3153 3154 3155 3155 3157
3124 3121 3119 3117 3115 3111 3110 3108 3105 3103 3101 3099 3097 3095 3093 3092 3091 3090 3090 3087 3085 3083 3081 3079 3078 3077 3075 3075 3074 3073 3075 3077 3079 3082 3085 3088 3090 3091 3093 3094 3095 3095 3096 3100 3103 3104 3104 3100 3097 3098 3101 3106 3112 3116 3118 3121 3123 3125 3126 3128 3129 3129 3128 3130 3133 3135 3138 3137 3137 3139 3140 3140 3141 3141 3141 3142 3143 3143 3144 3145 3146 3148 3150 3152 3152 3153 3154 3156
3122 3119 3117 3115 3113 3110 3108 3106 3104 3101 3099 3097 3095 3093 3091 3090 3089 3088 3087 3085 3084 3082 3080 3078 3078 3076 3074 3072 3070 3071 3073 3076 3079 3081 3082 3086 3087 3088 3090 3091 3091 3092 3095 3099 3100 3100 3099 3094 3095 3100 3105 3109 3112 3115 3118 3120 3122 3123 3124 3126 3126 3126 3127 3128 3130 3133 3136 3135 3135 3137 3138 3138 3139 3139 3140 3139 3139 3140 3141 3142 3143 3145 3147 3149 3150 3151 3153 3154
3120 3117 3115 3113 3111 3108 3106 3104 3103 3100 3098 3096 3094 3093 3091 3089 3088 3087 3085 3084 3083 3082 3079 3078 3077 3075 3073 3070 3068 3068 3070 3074 3078 3080 3080 3082 3084 3086 3088 3088 3089 3092 3094 3094 3094 3094 3092 3091 3096 3102 3106 3108 3111 3114 3116 3118 3120 3120 3122 3123 3122 3124 3127 3126 3128 3132 3133 3133 3133 3134 3135 3136 3137 3137 3137 3136 3136 3138 3139 3141 3142 3143 3144 3145 3148 3150 3151 3151
3117 3115 3113 3111 3109 3107 3104 3103 3101 3099 3097 3095 3093 3092 3090 3088 3087 3086 3084 3082 3081 3080 3078 3077 3077 3074 3072 3070 3068 3067 3068 3071 3075 3079 3079 3079 3082 3085 3086 3087 3088 3090 3090 3091 3092 3091 3090 3092 3097 3102 3104 3107 3110 3112 3114 3116 3116 3117 3119 3120 3119 3122 3125 3124 3126 3129 3130 3129 3130 3132 3133 3132 3133 3134 3133 3133 3135 3136 3137 3139 3140 3141 3142 3145 3148 3150 3150 3151
3115 3113 3111 3108 3107 3105 3103 3101 3100 3098 3096 3094 3093 3091 3089 3087 3086 3085 3083 3081 3080 3079 3077 3076 3076 3074 3072 3070 3068 3067 3067 3070 3074 3077 3077 3077 3080 3081 3083 3086 3086 3086 3088 3090 3092 3091 3092 3095 3098 3100 3102 3105 3107 3109 3111 3112 3114 3115 3115 3116 3118 3121 3124 3124 3125 3128 3128 3127 3127 3130 3130 3129 3130 3131 3130 3131 3132 3133 3135 3136 3137 3138 3140 3143 3146 3148 3149 3150
3113 3111 3109 3106 3105 3103 3101 3099 3098 3097 3095 3093 3092 3090 3088 3087 3085 3084 3082 3080 3079 3077 3076 3076 3075 3074 3072 3070 3068 3066 3066 3069 3072 3073 3073 3075 3077 3078 3081 3082 3082 3083 3086 3090 3091 3089 3091 3094 3097 3099 3101 3103 3105 3106 3107 3111 3113 3111 3110 3114 3118 3120 3123 3123 3125 3127 3126 3124 3125 3128 3129 3126 3127 3127 3127 3128 3129 3129 3131 3132 3133 3135 3137 3139 3142 3145 3147 3148
3111 3109 3107 3104 3102 3101 3099 3096 3095 3094 3093 3092 3090 3089 3087 3085 3084 3083 3082 3080 3078 3076 3076 3074 3074 3073 3072 3071 3069 3067 3067 3067 3068 3069 3070 3071 3073 3075 3076 3077 3079 3081 3084 3089 3087 3083 3087 3092 3094 3096 3099 3100 3101 3101 3103 3109 3111 3105 3107 3115 3117 3119 3121 3122 3124 3126 3125 3123 3122 3123 3127 3126 3124 3124 3124 3125 3126 3125 3126 3127 3129 3132 3134 3136 3139 3142 3144 3145
3109 3106 3104 3102 3100 3098 3096 3094 3092 3091 3090 3089 3088 3087 3085 3084 3083 3082 3082 3081 3077 3074 3074 3074 3073 3072 3072 3072 3070 3069 3069 3067 3067 3067 3066 3068 3069 3071 3072 3074 3077 3079 3082 3084 3079 3078 3084 3087 3088 3093 3096 3095 3094 3096 3101 3106 3106 3103 3108 3115 3116 3119 3120 3121 3124 3124 3124 3125 3118 3117 3124 3124 3120 3121 3122 3123 3122 3121 3121 3123 3126 3128 3130 3132 3135 3138 3141 3143
3107 3104 3101 3100 3098 3095 3093 3091 3089 3088 3087 3086 3086 3085 3083 3083 3082 3081 3082 3081 3076 3073 3073 3072 3072 3072 3071 3072 3070 3069 3069 3068 3067 3065 3065 3067 3068 3069 3070 3073 3076 3079 3080 3080 3077 3080 3083 3084 3087 3092 3092 3090 3092 3097 3101 3104 3103 3105 3110 3113 3115 3118 3119 3120 3122 3122 3125 3123 3114 3111 3119 3121 3117 3116 3119 3119 3116 3115 3117 3120 3123 3125 3127 3129 3131 3134 3138 3141
3104 3102 3099 3097 3096 3093 3091 3089 3087 3085 3083 3083 3083 3083 3082 3081 3080 3080 3081 3078 3074 3072 3072 3071 3071 3071 3070 3069 3068 3068 3068 3067 3066 3065 3064 3065 3066 3067 3070 3073 3076 3077 3078 3078 3078 3080 3083 3085 3088 3088 3088 3090 3094 3097 3100 3101 3103 3107 3110 3113 3115 3116 3118 3119 3118 3122 3122 3115 3109 3108 3114 3118 3114 3110 3112 3112 3110 3112 3115 3117 3120 3123 3125 3126 3128 3131 3135 3139
3102 3100 3098 3096 3094 3091 3089 3086 3085 3083 3081 3080 3080 3080 3080 3079 3078 3079 3078 3075 3072 3071 3070 3070 3071 3070 3069 3068 3067 3067 3066 3066 3066 3064 3063 3063 3064 3066 3068 3071 3073 3073 3074 3074 3076 3079 3082 3084 3084 3084 3087 3091 3094 3096 3098 3100 3103 3106 3109 3112 3114 3114 3117 3117 3115 3118 3115 3106 3105 3107 3110 3114 3108 3102 3106 3107 3108 3111 3112 3113 3117 3120 3121 3123 3125 3128 3132 3135
3101 3099 3096 3094 3092 3089 3087 3084 3083 3081 3080 3078 3078 3078 3078 3077 3077 3077 3074 3072 3073 3071 3069 3069 3069 3069 3070 3068 3067 3066 3065 3065 3065 3064 3063 3063 3063 3064 3066 3067 3068 3069 3068 3069 3072 3075 3078 3080 3081 3083 3086 3088 3090 3092 3095 3097 3099 3103 3106 3109 3111 3112 3113 3112 3110 3109 3105 3102 3104 3106 3108 3106 3097 3096 3102 3104 3106 3109 3109 3111 3114 3116 3117 3119 3122 3124 3127 3131
3099 3097 3094 3091 3090 3088 3085 3083 3081 3080 3079 3077 3076 3076 3076 3076 3076 3075 3073 3073 3073 3071 3069 3069 3068 3069 3070 3068 3066 3065 3064 3064 3065 3065 3065 3065 3064 3064 3064 3065 3065 3064 3063 3066 3069 3072 3074 3076 3078 3081 3082 3083 3085 3086 3088 3091 3093 3096 3099 3102 3104 3106 3108 3107 3104 3103 3101 3102 3103 3105 3105 3098 3090 3092 3096 3098 3103 3105 3108 3110 3111 3113 3115 3117 3119 3121 3124 3127
3097 3094 3091 3089 3089 3086 3084 3081 3080 3079 3078 3076 3074 3074 3074 3075 3075 3074 3073 3074 3073 3071 3070 3068 3068 3069 3069 3067 3066 3064 3063 3063 3064 3064 3065 3064 3064 3063 3062 3063 3063 3063 3063 3065 3067 3068 3069 3068 3069 3072 3075 3077 3080 3081 3083 3087 3091 3092 3094 3098 3098 3096 3097 3099 3099 3099 3099 3101 3102 3102 3099 3089 3085 3088 3091 3096 3100 3102 3105 3107 3109 3110 3112 3116 3117 3119 3122 3124
3095 3092 3088 3088 3087 3084 3082 3080 3078 3077 3077 3075 3073 3073 3073 3075 3075 3074 3074 3073 3072 3070 3070 3069 3068 3068 3067 3067 3066 3065 3064 3064 3063 3064 3064 3064 3064 3063 3063 3063 3064 3064 3065 3065 3065 3065 3063 3061 3064 3069 3072 3075 3076 3078 3082 3087 3088 3088 3091 3094 3091 3089 3092 3096 3097 3097 3098 3100 3097 3093 3088 3083 3084 3086 3090 3095 3097 3099 3102 3104 3106 3107 3109 3114 3115 3116 3120 3121
3094 3090 3086 3085 3085 3083 3081 3080 3077 3077 3076 3075 3074 3074 3074 3075 3075 3074 3074 3073 3071 3070 3069 3068 3067 3066 3066 3065 3065 3065 3064 3064 3063 3063 3064 3065 3065 3065 3065 3065 3065 3066 3066 3067 3066 3065 3062 3058 3061 3067 3069 3071 3074 3077 3081 3083 3083 3086 3088 3086 3084 3089 3095 3097 3096 3096 3097 3097 3090 3083 3081 3083 3085 3085 3088 3092 3093 3096 3099 3100 3102 3103 3105 3110 3111 3113 3117 3119
3091 3087 3084 3083 3082 3082 3081 3079 3077 3076 3076 3075 3075 3075 3075 3075 3075 3074 3073 3072 3072 3070 3069 3068 3067 3067 3066 3065 3065 3064 3064 3063 3062 3062 3063 3065 3065 3065 3066 3066 3067 3067 3068 3068 3067 3067 3064 3056 3055 3062 3064 3067 3073 3076 3078 3080 3081 3083 3082 3081 3087 3094 3096 3096 3096 3094 3094 3092 3085 3080 3080 3081 3082 3082 3084 3088 3090 3093 3095 3097 3099 3100 3102 3105 3107 3109 3113 3116
3087 3084 3082 3081 3080 3079 3078 3078 3077 3076 3076 3075 3075 3075 3075 3075 3074 3074 3073 3072 3071 3070 3069 3068 3068 3068 3067 3066 3066 3065 3064 3063 3062 3062 3063 3064 3065 3066 3066 3066 3066 3067 3067 3068 3067 3067 3064 3057 3054 3058 3062 3064 3068 3072 3074 3076 3078 3080 3080 3082 3087 3090 3088 3090 3092 3090 3090 3089 3083 3079 3078 3078 3077 3077 3080 3084 3087 3089 3092 3094 3097 3098 3099 3101 3103 3106 3110 3113
3086 3083 3081 3079 3078 3077 3076 3076 3075 3075 3075 3075 3074 3074 3074 3074 3074 3073 3071 3071 3070 3069 3069 3069 3068 3068 3068 3067 3066 3065 3065 3064 3063 3063 3064 3065 3065 3065 3065 3065 3065 3065 3066 3067 3066 3065 3065 3062 3056 3054 3058 3060 3063 3065 3067 3069 3073 3076 3078 3080 3082 3082 3082 3084 3085 3084 3086 3087 3083 3080 3077 3071 3071 3074 3079 3082 3085 3087 3090 3092 3094 3096 3097 3099 3101 3104 3107 3110
3086 3083 3081 3079 3076 3075 3073 3073 3073 3074 3073 3073 3073 3073 3073 3073 3073 3072 3070 3070 3070 3069 3069 3068 3068 3068 3068 3067 3066 3065 3065 3064 3063 3063 3064 3064 3065 3064 3064 3064 3063 3064 3064 3065 3066 3065 3064 3064 3058 3052 3053 3056 3057 3060 3062 3065 3069 3071 3073 3074 3076 3077 3078 3081 3081 3081 3083 3083 3081 3081 3074 3066 3068 3074 3077 3080 3084 3086 3088 3089 3091 3094 3096 3097 3099 3102 3104 3107
3084 3080 3080 3079 3076 3073 3071 3070 3071 3072 3070 3071 3071 3071 3072 3072 3072 3071 3070 3070 3070 3069 3068 3068 3067 3067 3067 3067 3066 3065 3065 3064 3063 3063 3063 3063 3064 3064 3063 3063 3062 3062 3062 3063 3065 3064 3062 3062 3058 3052 3050 3051 3053 3057 3060 3063 3066 3068 3069 3070 3071 3073 3075 3078 3078 3077 3079 3079 3078 3078 3071 3063 3067 3074 3075 3078 3081 3083 3086 3087 3088 3091 3093 3096 3098 3100 3102 3104
3084 3078 3076 3076 3074 3071 3070 3069 3070 3070 3069 3070 3070 3070 3071 3071 3071 3070 3069 3069 3069 3068 3068 3068 3067 3067 3067 3066 3066 3065 3064 3063 3063 3063 3062 3062 3063 3063 3062 3062 3062 3062 3062 3063 3063 3064 3063 3061 3057 3051 3048 3048 3049 3053 3056 3059 3061 3063 3065 3067 3070 3072 3071 3072 3072 3072 3075 3076 3076 3077 3069 3059 3064 3072 3073 3075 3078 3080 3083 3085 3086 3088 3090 3092 3095 3098 3100 3102
3084 3079 3074 3073 3072 3070 3069 3069 3069 3068 3068 3069 3069 3069 3070 3070 3070 3069 3068 3068 3068 3067 3067 3067 3066 3066 3066 3065 3065 3064 3063 3062 3062 3062 3062 3061 3061 3062 3061 3061 3061 3061 3062 3063 3063 3063 3062 3061 3058 3051 3047 3047 3049 3051 3054 3057 3059 3060 3061 3063 3066 3068 3067 3068 3069 3070 3073 3073 3073 3077 3068 3056 3061 3069 3070 3072 3075 3077 3079 3080 3082 3084 3085 3088 3091 3093 3097 3100
3083 3080 3074 3071 3069 3069 3068 3068 3068 3067 3068 3068 3068 3069 3069 3069 3068 3068 3068 3067 3067 3067 3066 3066 3066 3065 3065 3064 3064 3063 3063 3062 3061 3061 3061 3061 3060 3061 3060 3060 3060 3060 3062 3062 3062 3062 3062 3061 3060 3055 3052 3049 3048 3049 3052 3053 3054 3055 3057 3059 3061 3064 3067 3068 3068 3070 3070 3067 3070 3074 3064 3053 3058 3067 3068 3069 3072 3073 3075 3077 3078 3080 3080 3083 3085 3087 3092 3096
3080 3079 3075 3070 3068 3067 3067 3067 3067 3066 3066 3067 3067 3067 3067 3067 3066 3066 3067 3066 3066 3066 3065 3065 3065 3065 3064 3063 3062 3062 3062 3062 3061 3061 3060 3060 3059 3059 3059 3059 3059 3059 3060 3062 3062 3062 3062 3062 3061 3061 3059 3053 3048 3048 3050 3051 3051 3051 3053 3055 3057 3060 3062 3064 3066 3066 3063 3062 3066 3065 3056 3052 3059 3065 3066 3067 3069 3070 3072 3073 3074 3075 3076 3077 3079 3082 3087 3091
3078 3077 3075 3072 3068 3066 3066 3065 3065 3065 3065 3066 3066 3066 3066 3065 3065 3065 3065 3066 3065 3064 3064 3064 3064 3063 3062 3061 3061 3061 3061 3061 3061 3060 3060 3059 3058 3057 3057 3057 3057 3058 3058 3059 3061 3061 3061 3060 3060 3060 3059 3055 3051 3049 3051 3052 3050 3048 3049 3050 3052 3054 3056 3059 3061 3058 3057 3060 3060 3057 3056 3059 3060 3061 3062 3065 3067 3068 3069 3069 3070 3071 3072 3073 3075 3078 3083 3087
3077 3074 3073 3071 3069 3067 3066 3064 3064 3064 3064 3064 3064 3064 3064 3064 3064 3064 3064 3064 3063 3063 3063 3063 3062 3061 3061 3060 3060 3060 3060 3059 3059 3059 3058 3057 3056 3056 3055 3055 3056 3056 3055 3056 3058 3059 3058 3057 3057 3057 3056 3054 3052 3050 3050 3051 3049 3047 3047 3047 3048 3049 3051 3053 3053 3051 3055 3058 3055 3054 3060 3062 3058 3057 3059 3062 3064 3065 3065 3066 3066 3068 3070 3071 3073 3076 3080 3084
3077 3074 3072 3070 3068 3067 3065 3064 3064 3063 3063 3063 3063 3063 3063 3062 3062 3062 3062 3062 3062 3061 3061 3061 3061 3061 3060 3060 3059 3058 3058 3057 3056 3056 3056 3055 3055 3055 3054 3053 3054 3054 3053 3054 3055 3056 3056 3054 3054 3054 3052 3050 3050 3049 3049 3049 3048 3046 3046 3045 3045 3046 3047 3048 3048 3050 3053 3054 3052 3056 3061 3060 3057 3056 3057 3060 3063 3063 3063 3063 3063 3065 3068 3069 3071 3074 3078 3081
3077 3075 3073 3070 3068 3066 3064 3063 3062 3062 3062 3062 3062 3062 3062 3061 3061 3061 3060 3060 3061 3060 3059 3060 3060 3060 3059 3059 3058 3057 3057 3055 3054 3053 3053 3053 3053 3053 3053 3052 3052 3052 3051 3051 3052 3054 3054 3052 3052 3052 3048 3046 3047 3047 3047 3047 3046 3044 3044 3044 3042 3041 3041 3042 3045 3048 3051 3052 3054 3058 3060 3058 3056 3056 3057 3060 3061 3061 3061 3061 3061 3063 3066 3068 3070 3073 3075 3078
3077 3074 3072 3070 3068 3066 3064 3062 3061 3061 3062 3061 3061 3061 3061 3060 3060 3060 3059 3058 3059 3059 3058 3058 3058 3058 3058 3057 3056 3056 3055 3054 3052 3051 3052 3052 3051 3052 3051 3050 3050 3050 3049 3048 3049 3051 3051 3050 3050 3051 3046 3043 3043 3044 3044 3044 3043 3042 3042 3041 3038 3036 3037 3040 3043 3046 3049 3051 3054 3057 3057 3055 3054 3056 3058 3059 3059 3060 3059 3059 3061 3063 3066 3068 3070 3071 3074 3076
3075 3073 3071 3069 3067 3065 3063 3061 3060 3061 3061 3060 3060 3060 3060 3060 3059 3059 3058 3058 3057 3057 3057 3056 3056 3055 3055 3055 3054 3054 3053 3052 3051 3050 3050 3050 3049 3049 3049 3048 3047 3048 3047 3047 3047 3048 3049 3048 3049 3050 3047 3042 3041 3041 3040 3040 3041 3041 3040 3036 3032 3032 3035 3037 3040 3044 3046 3049 3052 3054 3053 3052 3053 3055 3057 3057 3058 3058 3057 3058 3060 3063 3065 3067 3069 3070 3072 3075
3073 3071 3070 3068 3066 3064 3062 3060 3059 3059 3059 3059 3059 3059 3059 3059 3058 3058 3057 3057 3056 3056 3055 3055 3054 3053 3053 3053 3052 3052 3051 3050 3049 3048 3048 3047 3046 3046 3046 3046 3045 3045 3045 3045 3044 3044 3046 3047 3047 3049 3047 3040 3039 3039 3038 3038 3039 3039 3038 3034 3030 3030 3032 3033 3037 3041 3043 3046 3048 3049 3049 3050 3052 3053 3054 3056 3057 3057 3057 3058 3059 3062 3064 3066 3068 3069 3071 3073